Skip Page Navigation
NASA JPL Caltech
NASA Logo - Jet Propulsion Laboratory + View the NASA Portal
+ Center for Near-Earth Object Studies
JPL Home Earth Solar System Stars & Galaxies Technology
JPL Solar System Dynamics
BODIES ORBITS EPHEMERIDES TOOLS PHYSICAL DATA DISCOVERY FAQ SITE MAP
JPL Small-Body Database Browser
Search: [ help ]  
11716 Amahartman (1998 HY79)
Classification: Main-belt Asteroid          SPK-ID: 2011716
Ephemeris | Orbit Diagram | Orbital Elements | Mission Design | Physical Parameters | Discovery Circumstances ]

[ show orbit diagram ]
Orbital Elements at Epoch 2459200.5 (2020-Dec-17.0) TDB
Reference: JPL 30 (heliocentric ecliptic J2000)
 Element Value Uncertainty (1-sigma)   Units 
e .1923720014846268 4.1137e-08  
a 2.634634845308576 9.8048e-09 au
q 2.127804866935425 1.1173e-07 au
i 2.993203730334105 4.367e-06 deg
node 344.3818687831661 6.6723e-05 deg
peri 338.8928750900884 6.7525e-05 deg
M 17.87943662748926 8.7545e-06 deg
tp 2459122.923460383551
(2020-Sep-30.42346038)
3.8034e-05 TDB
period 1561.992966768512
4.28
8.7194e-06
2.387e-08
d
yr
n .230474789361425 1.2866e-09 deg/d
Q 3.141464823681727 1.1691e-08 au
  Orbit Determination Parameters
   # obs. used (total)      1568  
   data-arc span      10996 days (30.11 yr)  
   first obs. used      1990-12-12  
   last obs. used      2021-01-19  
   planetary ephem.      DE441  
   SB-pert. ephem.      SB441-N16  
   condition code      0  
   norm. resid. RMS      .50347  
   source      ORB  
   producer      Otto Matic  
   solution date      2021-Apr-12 22:55:36  

Additional Information
 Earth MOID = 1.11394 au 
 Jupiter MOID = 2.18824 au 
 T_jup = 3.370 
[ show covariance matrix ]

Ephemeris | Orbit Diagram | Orbital Elements | Mission Design | Physical Parameters | Discovery Circumstances ]

Physical Parameter Table
Parameter Symbol Value Units Sigma Reference Notes
absolute magnitude H 14.69   n/a E2021B10  
rotation period rot_per 2.53 h n/a LCDB (Rev. 2020-October); Warner et al., 2009 Result based on less than full coverage, so that the period may be wrong by 30 percent or so.
Published Reference List:
[Chang, C.K.; Ip, W.-H.; Lin, H.-W.; Cheng, Y.C.; et al. (2015) Astrophys. J. Supp. Ser. 219, A27.]

11716 Amahartman           Discovered 1998 Apr. 21 by the Lincoln Laboratory Near-Earth Asteroid Research Team at Socorro.
Amanda Nicole Hartman (b. 1987) is a finalist in the 2002 Intel International Science and Engineering Fair for her microbiology project. She attends the China Spring High School, China Spring, Texas, U.S.A.
NOTE: some special characters may not display properly (any characters within {} are an attempt to place the proper accent above a character)
Reference: 20020724/MPCPages.arcLast Updated: 2003-10-02

Alternate Designations
 1998 HY79 = 1995 WT25 
Ephemeris | Orbit Diagram | Orbital Elements | Mission Design | Physical Parameters | Discovery Circumstances ]
ABOUT SSD CREDITS/AWARDS PRIVACY/COPYRIGHT GLOSSARY LINKS
FirstGov 2021-May-09 06:02 UT
(server date/time)  
NASA Home Page
Site Manager:   Ryan S. Park
Webmaster  Alan B. Chamberlin